Regional Weather Roundup
Issued by NWS

Home | Current Version | Previous Version | Text Only | Print | Product List | Glossary On
Versions: 1 2 3 4 5 6 7 8 9 10 11 12 13 14 15 16 17 18 19 20 21 22 23 24 25 26 27
000
ASUS45 KBOI 190410
RWRID

IDAHO REGIONAL WEATHER ROUNDUP
NATIONAL WEATHER SERVICE BOISE ID
900 PM MST WED JAN 18 2017

NOTE: "FAIR" INDICATES FEW OR NO CLOUDS BELOW 12000 FEET
WITH NO SIGNIFICANT WEATHER AND/OR OBSTRUCTIONS TO VISIBILITY

IDZ012-014-190500-
SOUTHWEST IDAHO


CITY           SKY/WX    TMP DP  RH WIND       PRES   REMARKS
BOISE          LGT RAIN  33  31  92 SE20      29.72F FOG     WCI  21
CALDWELL       LGT SNOW  32  30  92 SE24G33   29.72F FOG     WCI  19
MOUNTAIN HOME  LGT SNOW  31  31 100 SE26      29.76F FOG     WCI  17
$$

IDZ016-017-190500-
SOUTHCENTRAL IDAHO


CITY           SKY/WX    TMP DP  RH WIND       PRES   REMARKS
BURLEY         FRZ RAIN  32  27  81 E8        29.77F WCI  25
JEROME         LGT SNOW  26  23  88 NE25      29.78F FOG     WCI  11
TWIN FALLS     FRZ RAIN  29  25  85 NE7       29.77S WCI  22
$$

IDZ019>023-190500-
SOUTHEAST IDAHO


CITY           SKY/WX    TMP DP  RH WIND       PRES   REMARKS
IDAHO FALLS    CLOUDY    16  12  84 NW7       29.83F WCI   6
POCATELLO      CLOUDY    23  17  78 CALM      29.83F
REXBURG        CLOUDY    18  13  80 NE5       29.83F WCI  11
$$

IDZ006-010-011-018-031-032-190500-
CENTRAL IDAHO MOUNTAINS


CITY           SKY/WX    TMP DP  RH WIND       PRES   REMARKS
MCCALL         LGT SNOW  33  30  88 S10       29.61F VSB 1   WCI  25
HAILEY         LGT SNOW  27  27 100 CALM      29.81S VSB 3/4
STANLEY          N/A     34  32  92 S13G21    29.68F WCI  25
SALMON         CLOUDY    14   9  79 E6        29.74F WCI   5
CHALLIS        CLOUDY    18  15  88 CALM      29.74F
$$

IDZ002-004-006-007-026-190500-
NORTHERN IDAHO


CITY           SKY/WX    TMP DP  RH WIND       PRES   REMARKS
LEWISTON       LGT RAIN  37  33  85 E8        29.56F WCI  31
LOWELL           N/A     33  31  92 NW3       29.62F
COEUR D`ALENE  LGT RAIN  34  33  96 NE8       29.52F WCI  27
MULLAN PASS    FOG       32  31  96 MISG      29.51F VSB 1/2
$$




USA.gov is the U.S. government's official web portal to all federal, state and local government web resources and services.